2022/12/19 00:00:00, 9.9,-5.1
2022/12/19 00:10:00, 9.9,-4.9
2022/12/19 00:20:00, 9.8,-5.2
2022/12/19 00:30:00, 9.8,-5.2
2022/12/19 00:40:00, 9.8,-5.5
2022/12/19 00:50:00, 9.8,-5.5
2022/12/19 01:00:00, 9.8,-5.4
2022/12/19 01:10:00, 9.8,-5.3
2022/12/19 01:20:00, 9.7,-5.2
2022/12/19 01:30:00, 9.6,-5.1
2022/12/19 01:40:00, 9.6,-5.0
2022/12/19 01:50:00, 9.6,-4.6
2022/12/19 02:00:00, 9.6,-4.9
2022/12/19 02:10:00, 9.6,-4.9
2022/12/19 02:20:00, 9.5,-4.7
2022/12/19 02:30:00, 9.5,-4.9
2022/12/19 02:40:00, 9.5,-4.8
2022/12/19 02:50:00, 9.5,-5.2
2022/12/19 03:00:00, 9.5,-5.3
2022/12/19 03:10:00, 9.4,-5.4
2022/12/19 03:20:00, 9.4,-5.5
2022/12/19 03:30:00, 9.3,-5.4
2022/12/19 03:40:00, 9.4,-5.4
2022/12/19 03:50:00, 9.4,-5.5
2022/12/19 04:00:00, 9.3,-5.5
2022/12/19 04:10:00, 9.3,-5.6
2022/12/19 04:20:00, 9.3,-5.6
2022/12/19 04:30:00, 9.3,-5.5
2022/12/19 04:40:00, 9.3,-5.5
2022/12/19 04:50:00, 9.3,-5.6
2022/12/19 05:00:00, 9.3,-5.8
2022/12/19 05:10:00, 9.3,-5.6
2022/12/19 05:20:00, 9.2,-5.6
2022/12/19 05:30:00, 9.2,-5.6
2022/12/19 05:40:00, 9.1,-5.6
2022/12/19 05:50:00, 9.1,-5.5
2022/12/19 06:00:00, 9.1,-5.5
2022/12/19 06:10:00, 9.1,-5.6
2022/12/19 06:20:00, 9.1,-5.4
2022/12/19 06:30:00, 9.1,-5.4
2022/12/19 06:40:00, 9.0,-5.3
2022/12/19 06:50:00, 8.9,-5.2
2022/12/19 07:00:00, 8.9,-5.2
2022/12/19 07:10:00, 8.9,-5.2
2022/12/19 07:20:00, 8.8,-5.2
2022/12/19 07:30:00, 8.9,-5.2
2022/12/19 07:40:00, 8.8,-5.1
2022/12/19 07:50:00, 8.8,-4.9
2022/12/19 08:00:00, 8.8,-4.7
2022/12/19 08:10:00, 8.8,-4.5
2022/12/19 08:20:00, 8.8,-4.1
2022/12/19 08:30:00, 8.8,-3.8
2022/12/19 08:40:00, 8.8,-3.2
2022/12/19 08:50:00, 8.7,-3.0
2022/12/19 09:00:00, 8.7,-2.8
2022/12/19 09:10:00, 8.8,-2.5
2022/12/19 09:20:00, 8.7,-2.2
2022/12/19 09:30:00, 8.7,-2.2
2022/12/19 09:40:00, 8.6,-2.2
2022/12/19 09:50:00, 8.5,-2.1
2022/12/19 10:00:00, 8.5,-1.4
2022/12/19 10:10:00, 8.6,-1.6
2022/12/19 10:20:00, 8.5,-1.3
2022/12/19 10:30:00, 8.6,-0.7
2022/12/19 10:40:00, 8.6,-0.8
2022/12/19 10:50:00, 8.3,-1.0
2022/12/19 11:00:00, 8.3,-1.1
2022/12/19 11:10:00, 8.3,-1.2
2022/12/19 11:20:00, 8.2,-1.7
2022/12/19 11:30:00, 8.6,-1.7
2022/12/19 11:40:00, 8.8,-2.0
2022/12/19 11:50:00, 8.9,-1.6
2022/12/19 12:00:00, 8.8,-2.1
2022/12/19 12:10:00, 8.9,-0.3
2022/12/19 12:20:00, 9.2, 0.7
2022/12/19 12:30:00, 9.1, 0.3
2022/12/19 12:40:00, 9.0, 0.7
2022/12/19 12:50:00, 9.1, 0.9
2022/12/19 13:00:00, 8.8,-0.2
2022/12/19 13:10:00, 8.8,-0.1
2022/12/19 13:20:00, 9.1, 0.4
2022/12/19 13:30:00, 9.1,-0.2
2022/12/19 13:40:00, 8.8, 0.3
2022/12/19 13:50:00, 8.9, 0.6
2022/12/19 14:00:00, 9.0, 1.2
2022/12/19 14:10:00, 8.6, 0.3
2022/12/19 14:20:00, 8.7, 1.0
2022/12/19 14:30:00, 8.6, 0.2
2022/12/19 14:40:00, 8.5, 0.7
2022/12/19 14:50:00, 8.4, 0.9
2022/12/19 15:00:00, 8.4, 1.3
2022/12/19 15:10:00, 8.1, 1.1
2022/12/19 15:20:00, 8.0, 0.6
2022/12/19 15:30:00, 7.9,-0.2
2022/12/19 15:40:00, 7.8,-0.4
2022/12/19 15:50:00, 7.9,-1.1
2022/12/19 16:00:00, 7.9,-0.7
2022/12/19 16:10:00, 7.8,-0.9
2022/12/19 16:20:00, 7.8,-1.1
2022/12/19 16:30:00, 7.7,-1.3
2022/12/19 16:40:00, 7.6,-1.0
2022/12/19 16:50:00, 7.6,-1.5
2022/12/19 17:00:00, 7.6,-1.7
2022/12/19 17:10:00, 7.6,-1.7
2022/12/19 17:20:00, 7.9,-2.2
2022/12/19 17:30:00, 8.1,-2.2
2022/12/19 17:40:00, 8.0,-2.3
2022/12/19 17:50:00, 8.0,-2.2
2022/12/19 18:00:00, 7.9,-2.1
2022/12/19 18:10:00, 7.8,-2.2
2022/12/19 18:20:00, 7.8,-2.4
2022/12/19 18:30:00, 7.8,-2.2
2022/12/19 18:40:00, 7.8,-2.5
2022/12/19 18:50:00, 7.7,-2.4
2022/12/19 19:00:00, 7.8,-2.3
2022/12/19 19:10:00, 7.7,-2.4
2022/12/19 19:20:00, 7.7,-2.2
2022/12/19 19:30:00, 7.8,-2.1
2022/12/19 19:40:00, 7.8,-2.3
2022/12/19 19:50:00, 7.9,-2.4
2022/12/19 20:00:00, 8.1,-2.1
2022/12/19 20:10:00, 8.1,-2.0
2022/12/19 20:20:00, 8.1,-2.1
2022/12/19 20:30:00, 8.1,-2.2
2022/12/19 20:40:00, 8.0,-2.4
2022/12/19 20:50:00, 8.0,-2.3
2022/12/19 21:00:00, 8.0,-2.1
2022/12/19 21:10:00, 8.1,-2.2
2022/12/19 21:20:00, 8.2,-2.2
2022/12/19 21:30:00, 8.2,-2.3
2022/12/19 21:40:00, 8.2,-2.2
2022/12/19 21:50:00, 8.3,-2.3
2022/12/19 22:00:00, 8.2,-2.2
2022/12/19 22:10:00, 8.2,-2.4
2022/12/19 22:20:00, 8.1,-2.3
2022/12/19 22:30:00, 8.4,-2.4
2022/12/19 22:40:00, 8.8,-2.3
2022/12/19 22:50:00, 9.3,-2.4
2022/12/19 23:00:00, 9.5,-2.4
2022/12/19 23:10:00, 9.6,-2.5
2022/12/19 23:20:00,10.0,-2.4
2022/12/19 23:30:00,10.4,-2.4
2022/12/19 23:40:00,11.0,-2.3
2022/12/19 23:50:00,11.3,-2.4
